TimeCST,TemperatureF,Dew PointF,Humidity,Sea Level PressureIn,VisibilityMPH,Wind Direction,Wind SpeedMPH,Gust SpeedMPH,PrecipitationIn,Events,Conditions,WindDirDegrees,DateUTC
12:53 AM,28.9,23.0,78,30.47,10.0,Calm,Calm,-,N/A,,Clear,0,2012-12-30 06:53:00
1:53 AM,28.9,24.1,82,30.46,10.0,Calm,Calm,-,N/A,,Clear,0,2012-12-30 07:53:00
2:53 AM,27.0,23.0,85,30.48,10.0,Calm,Calm,-,N/A,,Clear,0,2012-12-30 08:53:00
3:53 AM,27.0,21.9,81,30.47,10.0,Calm,Calm,-,N/A,,Clear,0,2012-12-30 09:53:00
4:53 AM,28.0,21.0,75,30.47,10.0,Calm,Calm,-,N/A,,Clear,0,2012-12-30 10:53:00
5:53 AM,28.0,21.9,78,30.47,10.0,Calm,Calm,-,N/A,,Clear,0,2012-12-30 11:53:00
6:53 AM,28.9,21.9,75,30.48,10.0,Calm,Calm,-,N/A,,Clear,0,2012-12-30 12:53:00
7:53 AM,32.0,23.0,69,30.48,10.0,East,4.6,-,N/A,,Clear,90,2012-12-30 13:53:00
8:53 AM,36.0,25.0,64,30.49,10.0,SE,8.1,-,N/A,,Clear,130,2012-12-30 14:53:00
9:53 AM,37.9,24.1,57,30.51,10.0,SSE,9.2,-,N/A,,Clear,150,2012-12-30 15:53:00
10:53 AM,44.1,23.0,43,30.49,10.0,SE,11.5,-,N/A,,Clear,130,2012-12-30 16:53:00
11:53 AM,44.1,19.9,38,30.45,10.0,SSE,9.2,-,N/A,,Clear,150,2012-12-30 17:53:00
12:53 PM,45.0,21.0,39,30.42,10.0,SE,8.1,-,N/A,,Clear,130,2012-12-30 18:53:00
1:53 PM,45.0,21.0,39,30.40,10.0,SE,6.9,-,N/A,,Clear,130,2012-12-30 19:53:00
2:53 PM,45.0,21.9,40,30.38,10.0,SSE,6.9,-,N/A,,Clear,150,2012-12-30 20:53:00
3:53 PM,45.0,21.0,39,30.36,10.0,SSE,9.2,-,N/A,,Clear,150,2012-12-30 21:53:00
4:53 PM,44.1,23.0,43,30.35,10.0,SSE,8.1,-,N/A,,Clear,150,2012-12-30 22:53:00
5:53 PM,44.1,24.1,45,30.32,10.0,SE,8.1,-,N/A,,Overcast,140,2012-12-30 23:53:00
6:53 PM,44.1,25.0,47,30.34,10.0,SSE,4.6,-,N/A,,Clear,150,2012-12-31 00:53:00
7:53 PM,43.0,26.1,51,30.31,10.0,East,5.8,-,N/A,,Clear,100,2012-12-31 01:53:00
8:53 PM,43.0,26.1,51,30.30,10.0,SE,8.1,-,N/A,,Clear,130,2012-12-31 02:53:00
9:53 PM,42.1,26.1,53,30.29,10.0,SE,9.2,-,N/A,,Clear,140,2012-12-31 03:53:00
10:53 PM,42.1,26.1,53,30.29,10.0,SE,6.9,-,N/A,,Partly Cloudy,140,2012-12-31 04:53:00
11:53 PM,42.1,27.0,55,30.29,10.0,SSE,4.6,-,N/A,,Mostly Cloudy,160,2012-12-31 05:53:00